sat.trackr.live / text

‹ back to catalog

STARLINK-3674

NORAD 51975 · 2022-025V

PAYLOAD ACTIVE UNKNOWN

§ Identity

Operator
Country
US
Launch date
2022-03-09
Launch site
AFETR
Launch vehicle
Mass (kg)
RCS (m²)

Purposes: comms

External: N2YO · Heavens-Above · Gunter

§ Orbital elements

Epoch: 2026-05-24T23:20:04.837344Z

Period
94.01 min
Inclination
53.1614°
Eccentricity
0.0001279
Mean motion
15.31701254 rev/d
Perigee alt
469.9 km
Apogee alt
471.6 km
Semi-major
6,848.9 km
B*
-1.8257e-6
RAAN
29.0264°
Arg perigee
94.0629°
Mean anomaly
266.0519°
Rev number
23,271

§ Raw data

STARLINK-36741 51975U 22025V   26144.97227821 -.00000422  00000+0 -18257-5 0  99902 51975  53.1614  29.0264 0001279  94.0629 266.0519 15.31701254232714

JSON: /api/v1/satellites/51975 · /tle

For live sub-satellite position, see the globe view (requires WebGL).

§ Visibility from observer

Set your observer location to see the next 7 days of passes ≥ 10°. The values pass through the URL so the page stays shareable.

No JS? Fill the form by hand. The geolocation button needs JavaScript.